Home   Weather   Vancouver   Past weeks

Flag for Canada Past Weather in Vancouver, British Columbia, Canada — Yesterday and Last 2 Weeks

Now
43 °F

Passing clouds.


Feels Like: 37 °F
Forecast: 41 / 47 °F
Wind: 10 mph from West

Location: Vancouver International Airport

Current Time: Dec 3, 2016 at 1:43:39 am

Latest Report: Dec 3, 2016 at 1:00 am


Visibility: 20 mi

Pressure: 30.13 "Hg

Humidity: 93%

Dew Point: 41 °F

Location of VancouverLocation

Past Weather in Vancouver — Graph

°F

Vancouver Temperature Yesterday

Maximum temperature yesterday: 46 °F (at 11:00 am)
Minimum temperature yesterday: 41 °F (at 1:00 am)
Average temperature yesterday: 44 °F

High & Low Weather Summary for the Past Weeks

 TemperatureHumidityPressure
High54 °F (Nov 19, 3:00 pm)100% (Nov 18, 2:00 am)30.32 "Hg (Nov 18, 2:00 am)
Low36 °F (Dec 1, 6:56 am)62% (Nov 18, 4:00 pm)29.41 "Hg (Nov 27, 8:00 pm)
Average45 °F86%29.86 "Hg
* Reported Nov 18 12:00 am — Dec 3 12:00 am, Vancouver, Weather by CustomWeather, © 2016

Note: Actual official high and low records may vary slightly from our data, if they occured in-between our weather recording intervals... More about our weather records

Advertising

Vancouver Weather History for the Previous 24 Hours

Scroll right to see more
 ConditionsComfort  
Time TempWeatherWind HumidityBarometerVisibility
12:00 am
Sat, Dec 3
45 °FPassing clouds.10 mph93%30.12 "Hg20 mi
11:00 pm
Fri, Dec 2
43 °FPassing clouds.7 mph87%30.09 "Hg20 mi
10:00 pm45 °FPassing clouds.10 mph87%30.07 "Hg20 mi
9:00 pm46 °FPassing clouds.13 mph82%30.05 "Hg20 mi
8:00 pm45 °FPassing clouds.12 mph93%30.03 "Hg20 mi
7:00 pm46 °FPartly cloudy.15 mph93%30.01 "Hg15 mi
6:49 pm46 °FPartly cloudy.13 mph93%30.01 "Hg15 mi
6:00 pm46 °FPartly cloudy.8 mph93%30.00 "Hg15 mi
5:00 pm46 °FOvercast.10 mph93%30.01 "Hg15 mi
4:00 pm46 °FCloudy.15 mph93%30.01 "Hg15 mi
3:00 pm46 °FLight rain. Cloudy.17 mph93%30.03 "Hg10 mi
2:00 pm46 °FDrizzle. Fog.21 mph93%30.03 "Hg2 mi
1:48 pm46 °FDrizzle. Fog.20 mph93%30.03 "Hg2 mi
1:00 pm46 °FDrizzle. Fog.18 mph93%30.06 "Hg4 mi
12:03 pm46 °FDrizzle. Fog.21 mph93%30.09 "Hg6 mi
11:50 am46 °FLight rain. Cloudy.20 mph93%30.09 "Hg15 mi
11:00 am46 °FMostly cloudy.20 mph93%30.12 "Hg15 mi
10:00 am45 °FLight rain. Fog.14 mph93%30.16 "Hg5 mi
9:00 am43 °FLight rain. Mostly cloudy.14 mph100%30.19 "Hg12 mi
8:00 am43 °FLight rain. Fog.14 mph93%30.21 "Hg5 mi
7:56 am43 °FRain. Fog.14 mph93%30.21 "Hg5 mi
7:00 am43 °FLight rain. Mostly cloudy.12 mph93%30.22 "Hg12 mi
6:00 am43 °FLight rain. Mostly cloudy.14 mph93%30.24 "Hg10 mi
5:00 am43 °FLight rain. Overcast.13 mph93%30.24 "Hg10 mi
4:49 am43 °FLight rain. Low clouds.12 mph93%30.24 "Hg10 mi
4:00 am43 °FLight rain. Overcast.10 mph93%30.26 "Hg8 mi
3:00 am43 °FLight rain. Low clouds.12 mph93%30.27 "Hg10 mi
2:00 am41 °FLight rain. Fog.12 mph100%30.29 "Hg6 mi
1:00 am41 °FDrizzle. Fog.10 mph100%30.30 "Hg3 mi
Weather by CustomWeather, © 2016

See weather overviewHow to use our weather pages